Weather History for KNCA - September, 2012

Change the Weather History Date:

Sunday, September 9, 2012

  Actual Average Record
Temperature  
Mean Temperature 74 °F -  
Max Temperature 79 °F 81 °F 88 °F (1996)
Min Temperature 69 °F 65 °F 33 °F (1996)
Cooling Degree Days 9    
Growing Degree Days 24 (Base 50)    
Moisture  
Dew Point 66 °F    
Average Humidity 81    
Maximum Humidity 94    
Minimum Humidity 56    
Precipitation  
Precipitation 0.01 in - - ()
Sea Level Pressure  
Sea Level Pressure 29.84 in    
Wind  
Wind Speed 6 mph (North)    
Max Wind Speed 14 mph    
Max Gust Speed -    
Visibility 10 miles    
Events      
Averages and records for this station are not official NWS values.
T = Trace of Precipitation, MM = Missing Value Source: NWS Daily Summary

Daily Weather History Graph

Daily Weather History Graph

Search for Another Location

Airport or City:

Trip Planner

Search our weather history database for the weather conditions in past years. The results will help you decide how hot, cold, wet, or windy it might be!

Date:

Astronomy

Sep. 09, 2012 Rise Set
Actual Time 6:48 AM EDT 7:24 PM EDT
Civil Twilight 6:23 AM EDT 7:49 PM EDT
Nautical Twilight 5:53 AM EDT 8:19 PM EDT
Astronomical Twilight 5:22 AM EDT 8:50 PM EDT
Moon 12:27 AM EDT (9/9) 2:57 PM EDT (9/9)
Length of Visible Light 13h 26m
Length of Day
12h 35m
Last Quarter, 39% of the Moon is Illuminated
Sep 9
Last Quarter
Sep 15
New
Sep 22
First Quarter
Sep 29
Full
Oct 8
Last Quarter

Hourly Weather History & Observations

Time (EDT) Temp. Dew Point Humidity Pressure Visibility Wind Dir Wind Speed Gust Speed Precip Events Conditions
12:56 AM 72.0 °F 70.0 °F 93% 29.82 in 10.0 mi NW 3.5 mph - N/A   Clear
1:56 AM 72.0 °F 69.1 °F 91% 29.81 in 10.0 mi Calm Calm - N/A   Clear
2:56 AM 72.0 °F 69.1 °F 91% 29.81 in 10.0 mi Calm Calm - N/A   Mostly Cloudy
3:17 AM 71.6 °F 69.8 °F 94% 29.80 in 10.0 mi NNW 3.5 mph - N/A   Overcast
4:06 AM 71.6 °F 69.8 °F 94% 29.80 in 10.0 mi North 5.8 mph - N/A   Overcast
4:15 AM 71.6 °F 69.8 °F 94% 29.80 in 10.0 mi NNW 5.8 mph - N/A   Overcast
4:29 AM 71.6 °F 68.0 °F 88% 29.80 in 10.0 mi North 6.9 mph - N/A   Overcast
4:56 AM 72.0 °F 68.0 °F 87% 29.81 in 10.0 mi North 6.9 mph - N/A   Overcast
5:33 AM 69.8 °F 66.2 °F 88% 29.81 in 10.0 mi North 8.1 mph - N/A   Overcast
6:46 AM 69.8 °F 66.2 °F 88% 29.82 in 10.0 mi North 9.2 mph - 0.00 in   Overcast
6:56 AM 69.1 °F 66.0 °F 90% 29.83 in 10.0 mi North 10.4 mph - 0.00 in   Overcast
7:56 AM 69.1 °F 66.0 °F 90% 29.85 in 10.0 mi North 9.2 mph - N/A   Overcast
8:56 AM 71.1 °F 66.0 °F 84% 29.85 in 10.0 mi North 9.2 mph - N/A   Overcast
9:24 AM 71.6 °F 66.2 °F 83% 29.85 in 10.0 mi North 10.4 mph - N/A   Overcast
10:56 AM 73.0 °F 66.0 °F 79% 29.88 in 10.0 mi North 13.8 mph - N/A   Overcast
11:15 AM 73.4 °F 66.2 °F 78% 29.87 in 10.0 mi North 10.4 mph - N/A   Overcast
11:44 AM 73.4 °F 64.4 °F 73% 29.87 in 10.0 mi NNE 5.8 mph - 0.01 in   Overcast
11:56 AM 73.0 °F 66.0 °F 79% 29.88 in 10.0 mi NNE 8.1 mph - 0.01 in   Overcast
12:56 PM 75.0 °F 66.9 °F 76% 29.87 in 10.0 mi NNE 11.5 mph - N/A   Overcast
1:03 PM - - N/A% - - North - - N/A   Unknown
1:56 PM 73.9 °F 66.0 °F 76% 29.87 in 10.0 mi North 12.7 mph - N/A   Overcast
3:10 PM 75.2 °F 64.4 °F 69% 29.84 in 10.0 mi North 12.7 mph - N/A   Overcast
3:38 PM 78.8 °F 66.2 °F 65% 29.84 in 10.0 mi North 8.1 mph - N/A   Overcast
3:56 PM 77.0 °F 64.0 °F 64% 29.85 in 10.0 mi NNW 10.4 mph - N/A   Overcast
5:56 PM 79.0 °F 62.1 °F 56% 29.86 in 10.0 mi North 9.2 mph - N/A   Scattered Clouds
7:56 PM 73.0 °F 60.1 °F 64% 29.90 in 10.0 mi North 6.9 mph - N/A   Clear